User: anonymous   Login
Location: Vancouver
(49.2500°N, 123.1330°W)
Time: 13:45:44
(UTC-07:00)
Language:

YAOGAN 6 - Orbit

View from above orbital plane
View from above orbital plane
View from above satellite
View from above satellite

Ground track
Ground track

The orbit data is extracted from the following two-line orbital elements,

1 34839U 09021A   14304.47454032  .00007849  00000-0  35275-3 0  1636
2 34839 097.2718 015.5091 0033775 111.0751 345.2065 15.20879963306414
Epoch (UTC): 31 October 2014 11:23:20
Eccentricity: 0.0033775
inclination: 97.2718°
perigee height: 480 km
apogee height: 526 km
right ascension of ascending node: 15.5091°
argument of perigee: 111.0751°
revolutions per day: 15.20879963
mean anomaly at epoch: 345.2065°
orbit number at epoch: 30641

The dashed part of the orbit path shows where the satellite is in the earth's shadow,  

DLR